Time,TemperatureF,DewpointF,PressureIn,WindDirection,WindDirectionDegrees,WindSpeedMPH,WindSpeedGustMPH,Humidity,HourlyPrecipIn,Conditions,Clouds,dailyrainin,SoftwareType,DateUTC
2013-07-09 00:22:00,60.0,56.0,29.97,SSE,158,0.0,0.0,86,0.00,,,0.46,,2013-07-09 04:22:00,
2013-07-09 00:34:00,60.0,56.0,29.97,SSE,158,0.0,0.0,86,0.00,,,0.46,,2013-07-09 04:34:00,
2013-07-09 00:43:00,60.0,56.0,29.97,SSE,158,0.0,0.0,86,0.00,,,0.46,,2013-07-09 04:43:00,
2013-07-09 00:53:00,60.0,56.0,29.96,SSE,158,0.0,0.0,87,0.00,,,0.46,,2013-07-09 04:53:00,
2013-07-09 01:02:00,60.0,56.0,29.96,SSE,158,0.0,0.0,87,0.00,,,0.46,,2013-07-09 05:02:00,
2013-07-09 01:11:00,60.0,56.0,29.96,SSE,158,0.0,0.0,87,0.00,,,0.46,,2013-07-09 05:11:00,
2013-07-09 01:22:00,60.0,56.0,29.96,SE,135,0.0,0.0,87,0.00,,,0.46,,2013-07-09 05:22:00,
2013-07-09 01:33:00,60.0,56.0,29.96,SE,128,0.0,0.0,87,0.00,,,0.46,,2013-07-09 05:33:00,
2013-07-09 01:42:00,60.0,56.0,29.96,SE,128,0.0,0.0,87,0.00,,,0.46,,2013-07-09 05:42:00,
2013-07-09 01:52:00,60.0,56.0,29.96,ESE,112,0.0,0.0,87,0.00,,,0.46,,2013-07-09 05:52:00,
2013-07-09 02:01:00,60.0,56.0,29.97,ESE,112,0.0,0.0,87,0.00,,,0.46,,2013-07-09 06:01:00,
2013-07-09 02:11:00,60.0,56.0,29.97,ESE,112,0.0,0.0,87,0.00,,,0.46,,2013-07-09 06:11:00,
2013-07-09 02:22:00,60.0,56.0,29.97,SE,146,0.0,0.0,87,0.00,,,0.46,,2013-07-09 06:22:00,
2013-07-09 02:33:00,60.0,56.0,29.97,SE,135,0.0,0.0,87,0.00,,,0.46,,2013-07-09 06:33:00,
2013-07-09 02:43:00,60.0,56.0,29.97,SE,135,0.0,0.0,87,0.00,,,0.46,,2013-07-09 06:43:00,
2013-07-09 02:53:00,60.0,56.0,29.96,SE,135,0.0,0.0,87,0.00,,,0.46,,2013-07-09 06:53:00,
2013-07-09 03:02:00,60.0,56.0,29.96,SE,135,0.0,0.0,87,0.00,,,0.46,,2013-07-09 07:02:00,
2013-07-09 03:12:00,60.0,56.0,29.96,SE,135,0.0,0.0,87,0.00,,,0.46,,2013-07-09 07:12:00,
2013-07-09 03:22:00,60.0,56.0,29.96,SE,135,0.0,0.0,87,0.00,,,0.46,,2013-07-09 07:22:00,
2013-07-09 03:34:00,60.0,56.0,29.96,ESE,112,0.0,0.0,88,0.00,,,0.46,,2013-07-09 07:34:00,
2013-07-09 03:43:00,60.0,56.0,29.96,ESE,112,0.0,0.0,88,0.00,,,0.46,,2013-07-09 07:43:00,
2013-07-09 03:53:00,59.0,55.0,29.96,ESE,112,0.0,0.0,88,0.00,,,0.46,,2013-07-09 07:53:00,
2013-07-09 04:01:00,59.0,56.0,29.96,SE,125,0.0,1.0,89,0.00,,,0.46,,2013-07-09 08:01:00,
2013-07-09 04:11:00,59.0,56.0,29.96,SE,125,0.0,1.0,89,0.00,,,0.46,,2013-07-09 08:11:00,
2013-07-09 04:22:00,59.0,56.0,29.96,SE,135,0.0,0.0,89,0.00,,,0.46,,2013-07-09 08:22:00,
2013-07-09 04:33:00,59.0,56.0,29.95,ESE,112,0.0,0.0,89,0.00,,,0.46,,2013-07-09 08:33:00,
2013-07-09 04:43:00,59.0,56.0,29.95,ESE,112,0.0,0.0,89,0.00,,,0.46,,2013-07-09 08:43:00,
2013-07-09 04:52:00,59.0,56.0,29.95,SSE,158,0.0,0.0,90,0.00,,,0.46,,2013-07-09 08:52:00,
2013-07-09 05:02:00,59.0,56.0,29.94,SSE,158,0.0,0.0,90,0.00,,,0.46,,2013-07-09 09:02:00,
2013-07-09 05:12:00,59.0,56.0,29.94,SSE,158,0.0,0.0,90,0.00,,,0.46,,2013-07-09 09:12:00,
2013-07-09 05:22:00,59.0,56.0,29.94,South,178,0.0,0.0,90,0.00,,,0.46,,2013-07-09 09:22:00,
2013-07-09 05:34:00,59.0,56.0,29.93,SSE,147,0.0,0.0,90,0.00,,,0.46,,2013-07-09 09:34:00,
2013-07-09 05:42:00,59.0,56.0,29.93,SSE,147,0.0,0.0,90,0.00,,,0.46,,2013-07-09 09:42:00,
2013-07-09 05:53:00,59.0,56.0,29.93,ESE,112,0.0,0.0,90,0.00,,,0.46,,2013-07-09 09:53:00,
2013-07-09 06:01:00,59.0,56.0,29.92,ESE,119,0.0,0.0,90,0.00,,,0.46,,2013-07-09 10:01:00,
2013-07-09 06:11:00,59.0,56.0,29.92,ESE,119,0.0,0.0,90,0.00,,,0.46,,2013-07-09 10:11:00,
2013-07-09 06:22:00,59.0,56.0,29.92,ESE,112,0.0,0.0,90,0.00,,,0.46,,2013-07-09 10:22:00,
2013-07-09 06:33:00,59.0,56.0,29.92,ESE,112,0.0,0.0,90,0.00,,,0.46,,2013-07-09 10:33:00,
2013-07-09 06:42:00,59.0,56.0,29.92,ESE,112,0.0,0.0,90,0.00,,,0.46,,2013-07-09 10:42:00,
2013-07-09 06:52:00,59.0,56.0,29.93,SSE,149,0.0,0.0,90,0.00,,,0.46,,2013-07-09 10:52:00,
2013-07-09 07:01:00,59.0,56.0,29.92,SE,137,0.0,0.0,90,0.00,,,0.46,,2013-07-09 11:01:00,
2013-07-09 07:11:00,59.0,56.0,29.92,SE,137,0.0,0.0,90,0.00,,,0.46,,2013-07-09 11:11:00,
2013-07-09 07:22:00,59.0,56.0,29.92,SE,137,0.0,0.0,90,0.00,,,0.46,,2013-07-09 11:22:00,
2013-07-09 07:33:00,59.0,56.0,29.92,SE,137,0.0,0.0,90,0.00,,,0.46,,2013-07-09 11:33:00,
2013-07-09 07:42:00,59.0,56.0,29.92,SE,137,0.0,0.0,90,0.00,,,0.46,,2013-07-09 11:42:00,
2013-07-09 07:53:00,60.0,57.0,29.92,SE,135,0.0,0.0,90,0.00,,,0.00,,2013-07-09 11:53:00,
2013-07-09 08:02:00,60.0,57.0,29.92,ESE,112,0.0,0.0,90,0.00,,,0.00,,2013-07-09 12:02:00,
2013-07-09 08:11:00,60.0,57.0,29.92,ESE,112,0.0,0.0,90,0.00,,,0.00,,2013-07-09 12:11:00,
2013-07-09 08:22:00,60.0,57.0,29.92,SE,135,0.0,24.0,90,0.00,,,0.00,,2013-07-09 12:22:00,
2013-07-09 08:33:00,61.0,58.0,29.92,SE,135,0.0,0.0,90,0.00,,,0.00,,2013-07-09 12:33:00,
2013-07-09 08:43:00,61.0,58.0,29.92,SE,135,0.0,0.0,90,0.00,,,0.00,,2013-07-09 12:43:00,
2013-07-09 08:53:00,61.0,58.0,29.91,SSE,158,0.0,0.0,91,0.00,,,0.00,,2013-07-09 12:53:00,
2013-07-09 09:01:00,62.0,59.0,29.91,SE,135,0.0,1.0,91,0.00,,,0.00,,2013-07-09 13:01:00,
2013-07-09 09:11:00,62.0,59.0,29.91,SE,135,0.0,1.0,91,0.00,,,0.00,,2013-07-09 13:11:00,
2013-07-09 09:22:00,62.0,59.0,29.91,South,180,1.0,2.0,91,0.00,,,0.00,,2013-07-09 13:22:00,
2013-07-09 09:33:00,63.0,60.0,29.90,SSE,158,22.0,54.0,91,0.00,,,0.00,,2013-07-09 13:33:00,
2013-07-09 09:43:00,63.0,60.0,29.90,SSE,158,22.0,54.0,91,0.00,,,0.00,,2013-07-09 13:43:00,
2013-07-09 09:53:00,65.0,62.0,29.89,SSE,158,1.0,45.0,90,0.00,,,0.00,,2013-07-09 13:53:00,
2013-07-09 10:01:00,65.0,62.0,29.89,SSE,158,1.0,2.0,90,0.00,,,0.00,,2013-07-09 14:01:00,
2013-07-09 10:11:00,65.0,62.0,29.89,SSE,158,1.0,2.0,90,0.00,,,0.00,,2013-07-09 14:11:00,
2013-07-09 10:22:00,67.0,64.0,29.88,NW,315,0.0,2.0,89,0.00,,,0.00,,2013-07-09 14:22:00,
2013-07-09 10:34:00,68.0,64.0,29.86,SE,135,1.0,2.0,88,0.00,,,0.00,,2013-07-09 14:34:00,
2013-07-09 10:43:00,68.0,64.0,29.86,SE,135,1.0,2.0,88,0.00,,,0.00,,2013-07-09 14:43:00,
2013-07-09 11:02:00,70.0,65.0,29.87,SSE,158,1.0,3.0,85,0.00,,,0.00,,2013-07-09 15:02:00,
2013-07-09 11:12:00,70.0,65.0,29.87,SSE,158,1.0,3.0,85,0.00,,,0.00,,2013-07-09 15:12:00,
2013-07-09 13:53:00,79.0,68.0,29.82,South,180,1.0,8.0,70,0.00,,,0.00,,2013-07-09 17:53:00,
2013-07-09 14:02:00,79.0,69.0,29.82,NNE,22,3.0,3.0,71,0.00,,,0.00,,2013-07-09 18:02:00,
2013-07-09 14:11:00,79.0,69.0,29.82,NNE,22,3.0,3.0,71,0.00,,,0.00,,2013-07-09 18:11:00,
2013-07-09 14:22:00,77.0,67.0,29.82,WSW,248,1.0,2.0,72,0.00,,,0.00,,2013-07-09 18:22:00,
2013-07-09 14:43:00,77.0,68.0,29.82,South,180,2.0,3.0,73,0.00,,,0.00,,2013-07-09 18:43:00,
2013-07-09 14:52:00,76.0,67.0,29.81,WNW,292,1.0,3.0,74,0.00,,,0.00,,2013-07-09 18:52:00,
2013-07-09 15:01:00,76.0,67.0,29.80,SE,135,1.0,1.0,75,0.00,,,0.00,,2013-07-09 19:01:00,
2013-07-09 15:11:00,76.0,67.0,29.79,East,91,3.0,3.0,73,0.00,,,0.00,,2013-07-09 19:11:00,
2013-07-09 15:22:00,76.0,67.0,29.79,SSW,202,1.0,0.0,74,0.00,,,0.00,,2013-07-09 19:22:00,
2013-07-09 15:33:00,76.0,67.0,29.80,SE,135,3.0,3.0,74,0.00,,,0.00,,2013-07-09 19:33:00,
2013-07-09 15:42:00,76.0,67.0,29.80,SE,135,3.0,3.0,74,0.00,,,0.00,,2013-07-09 19:42:00,
2013-07-09 15:52:00,76.0,67.0,29.79,ESE,112,2.0,3.0,74,0.00,,,0.00,,2013-07-09 19:52:00,
2013-07-09 16:01:00,76.0,66.0,29.79,SE,135,2.0,3.0,72,0.00,,,0.00,,2013-07-09 20:01:00,
2013-07-09 16:11:00,76.0,66.0,29.79,SE,135,2.0,3.0,72,0.00,,,0.00,,2013-07-09 20:11:00,
2013-07-09 16:22:00,76.0,67.0,29.78,SE,135,1.0,3.0,73,0.00,,,0.00,,2013-07-09 20:22:00,
2013-07-09 16:32:00,75.0,66.0,29.78,SSE,158,1.0,2.0,73,0.00,,,0.00,,2013-07-09 20:32:00,
2013-07-09 16:43:00,75.0,66.0,29.78,SSE,158,1.0,2.0,73,0.00,,,0.00,,2013-07-09 20:43:00,
2013-07-09 16:52:00,75.0,67.0,29.77,ESE,108,0.0,1.0,75,0.00,,,0.00,,2013-07-09 20:52:00,
2013-07-09 17:01:00,75.0,67.0,29.77,SE,135,0.0,1.0,75,0.00,,,0.00,,2013-07-09 21:01:00,
2013-07-09 17:11:00,75.0,67.0,29.77,SE,135,0.0,1.0,75,0.00,,,0.00,,2013-07-09 21:11:00,
2013-07-09 17:22:00,75.0,67.0,29.76,SE,135,2.0,3.0,75,0.00,,,0.00,,2013-07-09 21:22:00,
2013-07-09 17:32:00,76.0,67.0,29.76,SSE,158,2.0,5.0,74,0.00,,,0.00,,2013-07-09 21:32:00,
2013-07-09 17:42:00,76.0,67.0,29.76,SSE,158,2.0,5.0,74,0.00,,,0.00,,2013-07-09 21:42:00,
2013-07-09 17:52:00,76.0,67.0,29.75,SSE,158,1.0,2.0,75,0.00,,,0.00,,2013-07-09 21:52:00,
2013-07-09 18:01:00,76.0,67.0,29.75,SSE,158,1.0,2.0,75,0.00,,,0.00,,2013-07-09 22:01:00,
2013-07-09 18:11:00,76.0,67.0,29.75,SSE,158,1.0,2.0,75,0.00,,,0.00,,2013-07-09 22:11:00,
2013-07-09 18:22:00,74.0,66.0,29.73,SSE,158,0.0,1.0,76,0.00,,,0.00,,2013-07-09 22:22:00,
2013-07-09 18:33:00,73.0,66.0,29.72,SSE,158,1.0,2.0,78,0.00,,,0.00,,2013-07-09 22:33:00,
2013-07-09 18:42:00,73.0,66.0,29.72,SSE,158,1.0,2.0,78,0.00,,,0.00,,2013-07-09 22:42:00,
2013-07-09 18:53:00,73.0,66.0,29.72,SE,135,0.0,2.0,79,0.00,,,0.00,,2013-07-09 22:53:00,
2013-07-09 19:02:00,73.0,66.0,29.72,SE,135,0.0,2.0,79,0.00,,,0.00,,2013-07-09 23:02:00,
2013-07-09 19:11:00,73.0,66.0,29.72,SE,135,0.0,2.0,79,0.00,,,0.00,,2013-07-09 23:11:00,
2013-07-09 19:22:00,72.0,67.0,29.71,ENE,68,0.0,3.0,83,0.00,,,0.00,,2013-07-09 23:22:00,
2013-07-09 19:31:00,71.0,66.0,29.70,ENE,68,0.0,0.0,85,0.00,,,0.00,,2013-07-09 23:31:00,
2013-07-09 19:33:00,71.0,66.0,29.71,ENE,68,0.0,0.0,83,0.00,,,0.00,,2013-07-09 23:33:00,
2013-07-09 19:43:00,71.0,66.0,29.71,ENE,68,0.0,0.0,83,0.00,,,0.00,,2013-07-09 23:43:00,
2013-07-09 19:53:00,71.0,66.0,29.70,ENE,68,0.0,0.0,85,0.00,,,0.00,,2013-07-09 23:53:00,
2013-07-09 20:01:00,71.0,66.0,29.70,ENE,68,0.0,0.0,85,0.00,,,0.00,,2013-07-10 00:01:00,
2013-07-09 20:11:00,71.0,66.0,29.70,ENE,68,0.0,0.0,85,0.00,,,0.00,,2013-07-10 00:11:00,
2013-07-09 20:22:00,71.0,66.0,29.70,ENE,68,0.0,0.0,85,0.00,,,0.00,,2013-07-10 00:22:00,
2013-07-09 20:52:00,71.0,67.0,29.69,SE,135,0.0,0.0,87,0.00,,,0.00,,2013-07-10 00:52:00,
2013-07-09 21:01:00,71.0,67.0,29.69,SE,135,0.0,0.0,87,0.00,,,0.00,,2013-07-10 01:01:00,
2013-07-09 21:11:00,71.0,67.0,29.69,SE,135,0.0,0.0,87,0.00,,,0.00,,2013-07-10 01:11:00,
2013-07-09 21:22:00,70.0,66.0,29.68,SSE,158,1.0,1.0,87,0.00,,,0.00,,2013-07-10 01:22:00,
2013-07-09 21:33:00,70.0,66.0,29.67,SSE,158,0.0,0.0,87,0.00,,,0.00,,2013-07-10 01:33:00,
2013-07-09 21:43:00,70.0,66.0,29.67,SSE,158,0.0,0.0,87,0.00,,,0.00,,2013-07-10 01:43:00,
2013-07-09 21:53:00,70.0,66.0,29.67,SE,135,0.0,0.0,87,0.00,,,0.00,,2013-07-10 01:53:00,
2013-07-09 22:01:00,69.0,65.0,29.66,SE,135,0.0,0.0,88,0.06,,,0.06,,2013-07-10 02:01:00,
2013-07-09 22:02:00,70.0,66.0,29.67,SE,135,0.0,0.0,87,0.00,,,0.00,,2013-07-10 02:02:00,
2013-07-09 22:11:00,70.0,66.0,29.67,SE,135,0.0,0.0,87,0.00,,,0.00,,2013-07-10 02:11:00,
2013-07-09 22:22:00,69.0,65.0,29.66,SE,135,0.0,0.0,88,0.06,,,0.06,,2013-07-10 02:22:00,
2013-07-09 22:34:00,69.0,65.0,29.66,SE,135,0.0,0.0,88,0.06,,,0.06,,2013-07-10 02:34:00,
2013-07-09 22:43:00,69.0,65.0,29.66,SE,135,0.0,0.0,88,0.06,,,0.06,,2013-07-10 02:43:00,
2013-07-09 22:53:00,69.0,65.0,29.66,SE,135,0.0,0.0,88,0.06,,,0.06,,2013-07-10 02:53:00,
2013-07-09 23:32:00,67.0,63.0,29.65,ESE,112,0.0,0.0,88,0.00,,,0.06,,2013-07-10 03:32:00,
2013-07-09 23:43:00,67.0,63.0,29.65,ESE,112,0.0,0.0,88,0.00,,,0.06,,2013-07-10 03:43:00,
2013-07-09 23:52:00,67.0,63.0,29.65,ESE,112,0.0,0.0,88,0.00,,,0.06,,2013-07-10 03:52:00,